Regional Weather Roundup
Issued by NWS

Home | Current Version | Previous Version | Graphics & Text | Print | Product List | Glossary On
Versions: 1 2 3 4 5 6 7 8 9 10 11 12 13 14 15 16 17 18 19 20 21 22 23 24 25 26 27 28 29 30 31 32 33 34 35 36 37 38 39 40 41 42 43 44 45 46 47 48 49 50
000
ASUS43 KLOT 271910
RWRIL

ILLINOIS REGIONAL WEATHER ROUNDUP
NATIONAL WEATHER SERVICE CHICAGO/ROMEOVILLE IL
200 PM CDT WED AUG 27 2014

NOTE: "FAIR" INDICATES FEW OR NO CLOUDS BELOW 12,000 FEET WITH NO
SIGNIFICANT WEATHER AND/OR OBSTRUCTIONS TO VISIBILITY.

* THESE STATIONS ARE NOT UNDER NWS QUALITY CONTROL. THEY ALSO MAY NOT
  REPORT WEATHER SUCH AS PRECIPITATION OR FOG.

ILZ001-002-007-009-015-016-024-272000-
NORTHWEST ILLINOIS

CITY           SKY/WX    TMP DP  RH WIND       PRES   REMARKS
MOLINE         CLOUDY    79  63  57 N3        30.16S HX  80
STERLING*      PTSUNNY   81  63  54 NE6       30.16S HX  82
SAVANNA*       CLOUDY    77  59  53 W6        30.17R
$$

ILZ003-004-008-010-011-017-018-272000-
NORTH CENTRAL ILLINOIS

CITY           SKY/WX    TMP DP  RH WIND       PRES   REMARKS
ROCKFORD       CLOUDY    79  58  48 NW6       30.17S HX  80
FREEPORT*      PTSUNNY   75  60  58 CALM      30.19S
ROCHELLE*      MOSUNNY   78  58  50 CALM      30.16S
DE KALB*       MOSUNNY   77  61  56 N5        30.16S
PERU*          CLOUDY    79  65  62 N5        30.15S HX  81
$$

ILZ005-006-012>014-019>023-272000-
NORTHEAST ILLINOIS

CITY           SKY/WX    TMP DP  RH WIND       PRES   REMARKS
CHICAGO-OHARE  PTSUNNY   80  61  52 E9        30.13F HX  81
CHICAGO-MIDWAY PTSUNNY   80  64  58 VRB6      30.13F HX  82
AURORA         PTSUNNY   81  62  52 CALM      30.14F HX  82
LANSING*       MOSUNNY   77  63  61 NE8       30.14S
JOLIET*        MOSUNNY   80  63  55 S3        30.14F HX  81
WAUKEGAN       MOSUNNY   74  63  68 NE7       30.15F
DUPAGE AIRPORT SUNNY     84  60  44 VRB3      30.14S HX  84
KANKAKEE*      CLOUDY    79  66  64 CALM      30.13F HX  81
WHEELING       MOSUNNY   78  65  63 NE8       30.16S HX  80
MORRIS*        MOSUNNY   80  67  63 W5        30.13F HX  83
ROMEOVILLE*    MOSUNNY   80  61  52 CALM      30.13F HX  81
NORTHERLY ISL    N/A     73  64  73 NE10        N/A
$$

LMZ740>746-272000-
SOUTHERN LAKE MICHIGAN

STATION/POSITION SKY/WX   TEMP    WIND        PRES    VSBY  WAVE
                          AIR SEA DIR/SP/G                  HT/PER
                          (F)     (DEG/KT/KT) (MB)    (MI)  (FT/S)
SOUTHERN BUOY              68 70   30/  6/  6 1021.5F         0
WAUKEGAN HARBOR            69      40/ 10/ 11   N/A
HARRISON CRIB              70      30/  9/ 10   N/A
BURNHAM HARBOR             74      20/  5/  9   N/A
CALUMET HARBOR             72      30/  7/ 10 1019.7F
MICHIGAN CITY              70     350/ 13/ 14   N/A
MICHIGAN CITY 6N           71 74   10/ 12/ 14   N/A           1/ 2
ST. JOSEPH                 70 74  350/ 12/ 16   N/A           2/ 2
$$

ILZ025>027-034>036-040-047-049-050-058-095>099-272000-
WEST-CENTRAL ILLINOIS

CITY           SKY/WX    TMP DP  RH WIND       PRES   REMARKS
QUINCY         PTSUNNY   81  72  74 N13       30.13F HX  85
GALESBURG*     CLOUDY    82  70  65 NW3       30.16S HX  86
MACOMB*        CLOUDY    79  70  74 N3        30.17S HX  82
JACKSONVILLE*  PTSUNNY   83  75  78 N6        30.13S HX  90
PITTSFIELD*    CLOUDY    83  75  76 N9        30.13F HX  90
$$

ILZ028>032-037-038-041>044-048-051>054-059>061-272000-
CENTRAL ILLINOIS

CITY           SKY/WX    TMP DP  RH WIND       PRES   REMARKS
PONTIAC        CLOUDY    81  70  69 N3        30.14S HX  84
DECATUR        CLOUDY    85  74  69 CALM      30.12S HX  92
PEORIA         CLOUDY    83  67  58 NW5       30.13S HX  85
LACON*         CLOUDY    79  67  66 N3        30.13S HX  81
LINCOLN*       PTSUNNY   86  73  64 N5        30.08S HX  92
SPRINGFIELD    CLOUDY    86  74  67 N6        30.11F HX  94
TAYLORVILLE    PTSUNNY   82  73  74 CALM      30.10S HX  88
$$

ILZ033-039-045-046-055>057-062-063-272000-
EAST-CENTRAL ILLINOIS

CITY           SKY/WX    TMP DP  RH WIND       PRES   REMARKS
CHAMPAIGN      PTSUNNY   87  73  62 VRB3      30.11F HX  94
DANVILLE*      PTSUNNY   82  73  74 E3        30.08F HAZE    HX  88
RANTOUL*       PTSUNNY   85  69  58 CALM      30.12F HX  88
MATTOON        CLOUDY    85  74  69 N7        30.10S HX  92
PARIS*         MOSUNNY   87  73  63 CALM      30.10F HX  93
$$

ILZ079-100>102-272000-
SOUTHWEST ILLINOIS

CITY           SKY/WX    TMP DP  RH WIND       PRES   REMARKS
ALTON          PTSUNNY   90  73  58 VRB5      30.09F HX  98
BELLEVILLE     SUNNY     91  75  58 W5        30.07F HX 102
CAHOKIA*       SUNNY     93  73  52 VRB5      30.07F HX 102
SPARTA*        SUNNY     91  75  61 NE3       30.09S HX 101
$$

ILZ064>066-069>071-074>076-080>082-084>086-088>090-092>094-272000-
SOUTH-CENTRAL ILLINOIS

CITY           SKY/WX    TMP DP  RH WIND       PRES   REMARKS
CARBONDALE     SUNNY     91  70  49 CALM      30.07F HX  96
CAIRO*         MOSUNNY   94  72  49 NE6       30.07S HX 101
EFFINGHAM*     SUNNY     89  70  53 W3        30.09F HX  94
MARION         MOSUNNY   93  70  46 SE6       30.08F HX  99
MT. VERNON     PTSUNNY   91  75  59 NE5       30.08F HX 102
SALEM*         MOSUNNY   91  77  64 NW3       30.09F HX 104
METROPOLIS*    MOSUNNY   92  74  56 CALM      30.06F HX 101
$$

ILZ067-068-072-073-078-083-087-091-272000-
SOUTHEAST ILLINOIS

CITY           SKY/WX    TMP DP  RH WIND       PRES   REMARKS
LAWRENCEVILLE  MOSUNNY   89  77  67 NW8       30.07F HX 101
FLORA*         SUNNY     88  74  63 N3        30.08F HX  97
FAIRFIELD*     SUNNY     91  81  70 W5        30.07F HX 110
HARRISBURG*    SUNNY     92  70  47 CALM      30.09S HX  98
ROBINSON*      SUNNY     91  73  54 N5        30.09S HX  99
CARMI*         MOSUNNY   90  75  62 CALM      30.07S HX 100
$$

ABBREVIATIONS USED IN REMARKS
   TC - TEMPERATURE IN CELSIUS
  WCI - WIND CHILL INDEX
   HX - HEAT INDEX
  VSB - VISIBILITY
$$




USA.gov is the U.S. government's official web portal to all federal, state and local government web resources and services.